WZZ5YK EPWA-LIEO

Flight info

Callsign WZZ5YK
Flight time 2h 19m
Altitude 36000
Route EVINA DCT NAVUR DCT PADKA DCT OGDAS DCT UPLAV DCT LEDVA DCT GIRDA DCT BAXON/N0449F370 DCT MAMAR DCT BATOX
Aircraft A21N/M-SDE2E3FGHIRWXY/LB1

Departure

Time 2026-05-08 05:39
Airport Warsaw Chopin Airport (EPWA)

Arrival

Time 2026-05-08 07:59
Airport Olbia Costa Smeralda Airport (LIEO)
Time Latitude Longitude Altitude Speed Heading
2026-05-08 04:54 52.17375 20.97052 366 ft 0 kts 242°
2026-05-08 05:27 52.17379 20.97065 366 ft 2 kts 242°
2026-05-08 05:27 52.17387 20.97086 366 ft 2 kts 242°
2026-05-08 05:27 52.17394 20.97108 366 ft 2 kts 242°
2026-05-08 05:28 52.17396 20.97132 366 ft 2 kts 284°
2026-05-08 05:28 52.17389 20.97154 366 ft 2 kts 317°
2026-05-08 05:28 52.17383 20.97161 366 ft 1 kts 336°
2026-05-08 05:28 52.17378 20.97165 366 ft 0 kts 332°
2026-05-08 05:32 52.17379 20.97164 366 ft 1 kts 332°
2026-05-08 05:32 52.17405 20.97143 366 ft 5 kts 332°
2026-05-08 05:32 52.17437 20.97115 366 ft 5 kts 332°
2026-05-08 05:33 52.17478 20.97080 366 ft 8 kts 330°
2026-05-08 05:33 52.17536 20.97026 366 ft 10 kts 330°
2026-05-08 05:33 52.17601 20.96967 366 ft 10 kts 328°
2026-05-08 05:33 52.17614 20.96859 366 ft 11 kts 240°
2026-05-08 05:34 52.17571 20.96748 366 ft 12 kts 238°
2026-05-08 05:34 52.17526 20.96627 366 ft 12 kts 239°
2026-05-08 05:34 52.17471 20.96513 366 ft 13 kts 239°
2026-05-08 05:34 52.17424 20.96400 366 ft 11 kts 200°
2026-05-08 05:35 52.17345 20.96439 366 ft 13 kts 150°
2026-05-08 05:35 52.17248 20.96524 366 ft 17 kts 152°
2026-05-08 05:35 52.17144 20.96615 366 ft 17 kts 152°
2026-05-08 05:35 52.17039 20.96707 366 ft 17 kts 152°
2026-05-08 05:36 52.16934 20.96799 366 ft 17 kts 151°
2026-05-08 05:36 52.16830 20.96889 366 ft 17 kts 152°
2026-05-08 05:36 52.16724 20.96981 366 ft 17 kts 152°
2026-05-08 05:36 52.16645 20.97115 366 ft 16 kts 114°
2026-05-08 05:37 52.16596 20.97290 366 ft 16 kts 114°
2026-05-08 05:37 52.16548 20.97465 366 ft 17 kts 114°
2026-05-08 05:37 52.16502 20.97630 366 ft 12 kts 114°
2026-05-08 05:37 52.16466 20.97763 366 ft 11 kts 116°
2026-05-08 05:38 52.16399 20.97790 366 ft 11 kts 197°
2026-05-08 05:38 52.16324 20.97742 366 ft 9 kts 202°
2026-05-08 05:38 52.16304 20.97675 366 ft 7 kts 285°
2026-05-08 05:38 52.16341 20.97540 366 ft 30 kts 294°
2026-05-08 05:39 52.16538 20.96845 366 ft 104 kts 294°
2026-05-08 05:39 52.16929 20.95441 369 ft 162 kts 295°
2026-05-08 05:39 52.17405 20.93678 811 ft 176 kts 295°
2026-05-08 05:39 52.17902 20.91858 1525 ft 179 kts 297°
2026-05-08 05:40 52.18263 20.89969 2229 ft 180 kts 276°
2026-05-08 05:40 52.18091 20.87867 2586 ft 196 kts 260°
2026-05-08 05:40 52.17769 20.85637 2922 ft 212 kts 258°
2026-05-08 05:40 52.17384 20.83190 3208 ft 234 kts 252°
2026-05-08 05:41 52.16413 20.80982 3516 ft 257 kts 216°
2026-05-08 05:41 52.14744 20.79839 4074 ft 269 kts 197°
2026-05-08 05:41 52.12920 20.79045 4870 ft 272 kts 196°
2026-05-08 05:41 52.11129 20.78231 5661 ft 274 kts 198°
2026-05-08 05:42 52.09304 20.77315 6460 ft 276 kts 199°
2026-05-08 05:42 52.07490 20.76334 7250 ft 278 kts 200°
2026-05-08 05:42 52.05664 20.75302 8044 ft 280 kts 201°
2026-05-08 05:42 52.03831 20.74241 8819 ft 282 kts 201°
2026-05-08 05:43 52.02011 20.73175 9554 ft 285 kts 201°
2026-05-08 05:43 52.00138 20.72069 10282 ft 288 kts 201°
2026-05-08 05:43 51.98233 20.70942 10761 ft 300 kts 201°
2026-05-08 05:43 51.96234 20.69756 11081 ft 317 kts 201°
2026-05-08 05:44 51.94099 20.68489 11400 ft 333 kts 201°
2026-05-08 05:44 51.91910 20.67193 11931 ft 340 kts 201°
2026-05-08 05:44 51.89686 20.65876 12611 ft 343 kts 201°
2026-05-08 05:44 51.87450 20.64553 13261 ft 346 kts 201°
2026-05-08 05:45 51.85200 20.63222 13889 ft 349 kts 201°
2026-05-08 05:45 51.82925 20.61876 14517 ft 351 kts 201°
2026-05-08 05:45 51.80623 20.60512 15173 ft 353 kts 201°
2026-05-08 05:45 51.78325 20.59153 15807 ft 354 kts 200°
2026-05-08 05:46 51.76043 20.57807 16417 ft 356 kts 200°
2026-05-08 05:46 51.73712 20.56434 17001 ft 358 kts 200°
2026-05-08 05:46 51.71366 20.55055 17563 ft 360 kts 200°
2026-05-08 05:46 51.69017 20.53675 18109 ft 362 kts 200°
2026-05-08 05:47 51.66651 20.52286 18662 ft 364 kts 200°
2026-05-08 05:47 51.64276 20.50895 19191 ft 365 kts 199°
2026-05-08 05:47 51.61889 20.49496 19702 ft 367 kts 199°
2026-05-08 05:47 51.59495 20.48096 20182 ft 370 kts 199°
2026-05-08 05:48 51.57095 20.46693 20681 ft 372 kts 199°
2026-05-08 05:48 51.54678 20.45281 21152 ft 374 kts 199°
2026-05-08 05:48 51.52233 20.43853 21621 ft 376 kts 199°
2026-05-08 05:48 51.49782 20.42424 22068 ft 378 kts 199°
2026-05-08 05:49 51.47304 20.40982 22509 ft 380 kts 199°
2026-05-08 05:49 51.44812 20.39534 22919 ft 382 kts 198°
2026-05-08 05:49 51.42304 20.38077 23333 ft 384 kts 199°
2026-05-08 05:49 51.39846 20.36386 23752 ft 388 kts 204°
2026-05-08 05:50 51.37484 20.34280 24133 ft 392 kts 210°
2026-05-08 05:50 51.35253 20.31801 24476 ft 396 kts 214°
2026-05-08 05:50 51.33058 20.29166 24867 ft 398 kts 214°
2026-05-08 05:50 51.30862 20.26506 25246 ft 399 kts 214°
2026-05-08 05:51 51.28639 20.23817 25601 ft 401 kts 214°
2026-05-08 05:51 51.26419 20.21139 25970 ft 402 kts 214°
2026-05-08 05:51 51.24205 20.18475 26317 ft 403 kts 214°
2026-05-08 05:51 51.21936 20.15749 26657 ft 405 kts 214°
2026-05-08 05:52 51.19681 20.13045 26957 ft 407 kts 214°
2026-05-08 05:52 51.17445 20.10366 27261 ft 409 kts 214°
2026-05-08 05:52 51.15172 20.07647 27565 ft 410 kts 214°
2026-05-08 05:52 51.12888 20.04921 27883 ft 412 kts 214°
2026-05-08 05:53 51.10600 20.02192 28185 ft 414 kts 214°
2026-05-08 05:53 51.08285 19.99435 28486 ft 416 kts 214°
2026-05-08 05:53 51.05972 19.96684 28784 ft 417 kts 214°
2026-05-08 05:53 51.03663 19.93930 29075 ft 419 kts 215°
2026-05-08 05:54 51.01405 19.91020 29355 ft 421 kts 218°
2026-05-08 05:54 50.99240 19.87915 29645 ft 423 kts 221°
2026-05-08 05:54 50.97129 19.84637 29925 ft 425 kts 222°
2026-05-08 05:54 50.95016 19.81355 30265 ft 423 kts 222°
2026-05-08 05:55 50.92920 19.78109 30623 ft 422 kts 222°
2026-05-08 05:55 50.90848 19.74905 30938 ft 420 kts 222°
2026-05-08 05:55 50.88769 19.71689 31234 ft 419 kts 223°
2026-05-08 05:55 50.86672 19.68449 31508 ft 419 kts 223°
2026-05-08 05:56 50.84607 19.65258 31757 ft 419 kts 223°
2026-05-08 05:56 50.82511 19.62027 32017 ft 419 kts 223°
2026-05-08 05:56 50.80448 19.58851 32278 ft 419 kts 223°
2026-05-08 05:56 50.78348 19.55622 32538 ft 418 kts 223°
2026-05-08 05:57 50.76283 19.52449 32782 ft 418 kts 224°
2026-05-08 05:57 50.74213 19.49276 33028 ft 418 kts 224°
2026-05-08 05:57 50.72117 19.46064 33271 ft 417 kts 224°
2026-05-08 05:57 50.70044 19.42891 33496 ft 417 kts 224°
2026-05-08 05:58 50.67965 19.39712 33732 ft 417 kts 224°
2026-05-08 05:58 50.65900 19.36560 33980 ft 417 kts 224°
2026-05-08 05:58 50.63840 19.33418 34228 ft 417 kts 224°
2026-05-08 05:58 50.61733 19.30206 34448 ft 418 kts 224°
2026-05-08 05:59 50.59645 19.27032 34644 ft 419 kts 224°
2026-05-08 05:59 50.57572 19.23881 34841 ft 420 kts 224°
2026-05-08 05:59 50.55461 19.20680 35037 ft 421 kts 224°
2026-05-08 05:59 50.53370 19.17514 35210 ft 423 kts 224°
2026-05-08 06:00 50.51235 19.14285 35389 ft 424 kts 224°
2026-05-08 06:00 50.49126 19.11098 35579 ft 425 kts 224°
2026-05-08 06:00 50.47001 19.07891 35747 ft 426 kts 224°
2026-05-08 06:00 50.44858 19.04663 35905 ft 427 kts 224°
2026-05-08 06:01 50.42738 19.01473 36040 ft 428 kts 224°
2026-05-08 06:01 50.38449 18.95031 36059 ft 428 kts 224°
2026-05-08 06:02 50.34138 18.88573 36066 ft 429 kts 224°
2026-05-08 06:02 50.29846 18.82164 36068 ft 428 kts 224°
2026-05-08 06:03 50.25563 18.75782 36070 ft 428 kts 224°
2026-05-08 06:03 50.21275 18.69408 36071 ft 428 kts 224°
2026-05-08 06:04 50.16962 18.63015 36070 ft 428 kts 224°
2026-05-08 06:04 50.12652 18.56644 36073 ft 428 kts 225°
2026-05-08 06:05 50.08347 18.50295 36071 ft 428 kts 225°
2026-05-08 06:05 50.04040 18.43958 36072 ft 427 kts 225°
2026-05-08 06:06 49.99734 18.37640 36071 ft 427 kts 225°
2026-05-08 06:06 49.95416 18.31323 36075 ft 428 kts 224°
2026-05-08 06:07 49.91008 18.25214 36079 ft 429 kts 221°
2026-05-08 06:07 49.86474 18.19187 36079 ft 429 kts 222°
2026-05-08 06:08 49.81967 18.13209 36074 ft 428 kts 222°
2026-05-08 06:08 49.77438 18.07222 36071 ft 428 kts 222°
2026-05-08 06:09 49.72925 18.01279 36075 ft 428 kts 222°
2026-05-08 06:09 49.68307 17.95453 36068 ft 429 kts 219°
2026-05-08 06:10 49.63608 17.89852 36071 ft 429 kts 220°
2026-05-08 06:10 49.58922 17.84278 36069 ft 428 kts 220°
2026-05-08 06:11 49.54225 17.78705 36066 ft 428 kts 220°
2026-05-08 06:11 49.49503 17.73119 36069 ft 427 kts 220°
2026-05-08 06:12 49.44800 17.67571 36064 ft 427 kts 220°
2026-05-08 06:12 49.40107 17.62045 36061 ft 427 kts 220°
2026-05-08 06:13 49.35415 17.56539 36067 ft 426 kts 220°
2026-05-08 06:13 49.30796 17.50980 36071 ft 425 kts 222°
2026-05-08 06:14 49.26241 17.45237 36074 ft 425 kts 222°
2026-05-08 06:14 49.21672 17.39496 36068 ft 425 kts 222°
2026-05-08 06:15 49.17120 17.33786 36074 ft 424 kts 221°
2026-05-08 06:15 49.12571 17.28091 36074 ft 424 kts 222°
2026-05-08 06:16 49.08006 17.22389 36074 ft 425 kts 222°
2026-05-08 06:16 49.03459 17.16721 36068 ft 425 kts 222°
2026-05-08 06:17 48.96619 17.08223 35993 ft 426 kts 222°
2026-05-08 06:17 48.92023 17.02527 36055 ft 426 kts 222°
2026-05-08 06:18 48.87463 16.96891 36072 ft 426 kts 222°
2026-05-08 06:18 48.82864 16.91221 36080 ft 425 kts 222°
2026-05-08 06:19 48.78312 16.85624 36073 ft 424 kts 222°
2026-05-08 06:19 48.73669 16.80113 36072 ft 426 kts 219°
2026-05-08 06:20 48.68674 16.75289 36079 ft 428 kts 214°
2026-05-08 06:20 48.63560 16.70827 36069 ft 427 kts 214°
2026-05-08 06:21 48.58415 16.66337 36080 ft 427 kts 214°
2026-05-08 06:21 48.53305 16.61891 36075 ft 426 kts 214°
2026-05-08 06:22 48.48169 16.57432 36079 ft 426 kts 214°
2026-05-08 06:22 48.43046 16.52997 36081 ft 426 kts 214°
2026-05-08 06:23 48.37926 16.48578 36076 ft 425 kts 214°
2026-05-08 06:23 48.32834 16.44189 36084 ft 425 kts 214°
2026-05-08 06:24 48.27710 16.39785 36078 ft 424 kts 214°
2026-05-08 06:24 48.22608 16.35410 36088 ft 424 kts 214°
2026-05-08 06:25 48.17478 16.31020 36076 ft 424 kts 213°
2026-05-08 06:25 48.12388 16.26676 36083 ft 423 kts 213°
2026-05-08 06:26 48.07294 16.22336 36085 ft 423 kts 213°
2026-05-08 06:26 48.02199 16.18008 36083 ft 422 kts 213°
2026-05-08 06:27 47.97100 16.13686 36077 ft 422 kts 214°
2026-05-08 06:27 47.92008 16.09378 36075 ft 422 kts 214°
2026-05-08 06:28 47.86924 16.05087 36065 ft 422 kts 213°
2026-05-08 06:28 47.81835 16.00803 36067 ft 421 kts 213°
2026-05-08 06:29 47.76742 15.96524 36079 ft 420 kts 213°
2026-05-08 06:29 47.71685 15.92287 36080 ft 420 kts 214°
2026-05-08 06:30 47.66597 15.88033 36085 ft 419 kts 214°
2026-05-08 06:30 47.61562 15.83831 36085 ft 419 kts 214°
2026-05-08 06:31 47.56498 15.79618 36075 ft 419 kts 214°
2026-05-08 06:31 47.51407 15.75386 36077 ft 418 kts 214°
2026-05-08 06:32 47.46347 15.71193 36092 ft 417 kts 214°
2026-05-08 06:32 47.41311 15.67030 36085 ft 416 kts 214°
2026-05-08 06:33 47.36274 15.62873 36087 ft 416 kts 214°
2026-05-08 06:33 47.31243 15.58730 36100 ft 416 kts 214°
2026-05-08 06:34 47.26219 15.54605 36090 ft 415 kts 214°
2026-05-08 06:34 47.21196 15.50487 36085 ft 414 kts 214°
2026-05-08 06:35 47.16176 15.46379 36090 ft 414 kts 214°
2026-05-08 06:35 47.11161 15.42287 36068 ft 413 kts 214°
2026-05-08 06:36 47.06126 15.38188 36070 ft 412 kts 214°
2026-05-08 06:36 47.01123 15.34120 36091 ft 412 kts 213°
2026-05-08 06:37 46.96118 15.30065 36072 ft 411 kts 214°
2026-05-08 06:37 46.91123 15.26020 36068 ft 411 kts 213°
2026-05-08 06:38 46.86111 15.21974 36073 ft 412 kts 213°
2026-05-08 06:38 46.81109 15.17944 36071 ft 412 kts 213°
2026-05-08 06:39 46.76111 15.13928 36072 ft 411 kts 214°
2026-05-08 06:39 46.71086 15.09895 36066 ft 411 kts 214°
2026-05-08 06:40 46.66108 15.05908 36064 ft 411 kts 213°
2026-05-08 06:40 46.61103 15.01908 36063 ft 411 kts 213°
2026-05-08 06:41 46.56107 14.97925 36056 ft 410 kts 213°
2026-05-08 06:41 46.51112 14.93951 36054 ft 411 kts 213°
2026-05-08 06:42 46.46123 14.89991 36056 ft 411 kts 213°
2026-05-08 06:42 46.41099 14.86014 36060 ft 412 kts 213°
2026-05-08 06:43 46.36092 14.82054 36060 ft 412 kts 213°
2026-05-08 06:43 46.31079 14.78101 36063 ft 412 kts 213°
2026-05-08 06:44 46.26041 14.74136 36070 ft 412 kts 213°
2026-05-08 06:44 46.21006 14.70183 36067 ft 412 kts 213°
2026-05-08 06:45 46.15982 14.66244 36069 ft 412 kts 213°
2026-05-08 06:45 46.10959 14.62318 36066 ft 412 kts 213°
2026-05-08 06:46 46.05964 14.58419 36074 ft 412 kts 213°
2026-05-08 06:46 46.00931 14.54500 36070 ft 412 kts 213°
2026-05-08 06:47 45.95893 14.50583 36077 ft 412 kts 213°
2026-05-08 06:47 45.90865 14.46682 36072 ft 412 kts 212°
2026-05-08 06:48 45.85828 14.42783 36070 ft 411 kts 212°
2026-05-08 06:48 45.80814 14.38910 36065 ft 412 kts 212°
2026-05-08 06:49 45.75769 14.35020 36064 ft 411 kts 212°
2026-05-08 06:49 45.70740 14.31152 36060 ft 411 kts 211°
2026-05-08 06:50 45.65727 14.27303 36058 ft 411 kts 212°
2026-05-08 06:50 45.60699 14.23453 36055 ft 411 kts 212°
2026-05-08 06:51 45.55767 14.19679 36052 ft 411 kts 212°
2026-05-08 06:51 45.50717 14.15828 36049 ft 411 kts 212°
2026-05-08 06:52 45.45638 14.12191 36052 ft 412 kts 208°
2026-05-08 06:52 45.40405 14.08818 36044 ft 412 kts 208°
2026-05-08 06:53 45.35218 14.05470 36037 ft 411 kts 208°
2026-05-08 06:53 45.30005 14.02116 36036 ft 412 kts 208°
2026-05-08 06:54 45.24803 13.98778 36031 ft 412 kts 208°
2026-05-08 06:54 45.19585 13.95439 36026 ft 412 kts 208°
2026-05-08 06:55 45.14375 13.92111 36020 ft 412 kts 208°
2026-05-08 06:55 45.09181 13.88800 36018 ft 411 kts 208°
2026-05-08 06:56 45.03984 13.85491 36024 ft 412 kts 208°
2026-05-08 06:56 45.01370 13.83829 36155 ft 414 kts 207°
2026-05-08 06:56 44.98721 13.82148 36387 ft 412 kts 207°
2026-05-08 06:57 44.96135 13.80506 36642 ft 411 kts 207°
2026-05-08 06:57 44.93548 13.78868 36887 ft 410 kts 207°
2026-05-08 06:57 44.90946 13.77219 37014 ft 412 kts 207°
2026-05-08 06:57 44.88339 13.75571 37014 ft 412 kts 207°
2026-05-08 06:58 44.83096 13.72261 37012 ft 412 kts 207°
2026-05-08 06:58 44.77874 13.68974 37023 ft 412 kts 207°
2026-05-08 06:59 44.72672 13.65704 37019 ft 412 kts 207°
2026-05-08 06:59 44.67442 13.62421 37016 ft 412 kts 207°
2026-05-08 07:00 44.62235 13.59160 37007 ft 412 kts 207°
2026-05-08 07:00 44.57005 13.55890 37002 ft 412 kts 207°
2026-05-08 07:01 44.51774 13.52627 37012 ft 412 kts 207°
2026-05-08 07:01 44.46561 13.49382 37002 ft 412 kts 207°
2026-05-08 07:02 44.41439 13.45797 37002 ft 411 kts 212°
2026-05-08 07:02 44.36619 13.41529 37002 ft 410 kts 216°
2026-05-08 07:03 44.31905 13.37053 37000 ft 410 kts 216°
2026-05-08 07:03 44.27193 13.32590 37004 ft 410 kts 216°
2026-05-08 07:04 44.22476 13.28122 37000 ft 411 kts 215°
2026-05-08 07:04 44.17768 13.23672 36995 ft 411 kts 215°
2026-05-08 07:05 44.13053 13.19221 36996 ft 412 kts 215°
2026-05-08 07:05 44.08292 13.14737 36997 ft 412 kts 215°
2026-05-08 07:06 44.03554 13.10282 37001 ft 412 kts 215°
2026-05-08 07:06 43.98829 13.05849 37002 ft 412 kts 215°
2026-05-08 07:07 43.94088 13.01409 37001 ft 413 kts 215°
2026-05-08 07:07 43.89333 12.96964 37006 ft 413 kts 215°
2026-05-08 07:08 43.84568 12.92521 37006 ft 413 kts 215°
2026-05-08 07:08 43.79812 12.88090 36995 ft 413 kts 215°
2026-05-08 07:09 43.75030 12.83647 36995 ft 414 kts 215°
2026-05-08 07:09 43.70257 12.79220 36987 ft 414 kts 215°
2026-05-08 07:10 43.65496 12.74813 36989 ft 414 kts 215°
2026-05-08 07:10 43.60713 12.70395 36980 ft 414 kts 215°
2026-05-08 07:11 43.55954 12.66007 36986 ft 415 kts 215°
2026-05-08 07:11 43.51154 12.61589 36981 ft 415 kts 215°
2026-05-08 07:12 43.46369 12.57194 36983 ft 414 kts 215°
2026-05-08 07:12 43.41564 12.52789 36983 ft 415 kts 215°
2026-05-08 07:13 43.36776 12.48409 36979 ft 416 kts 215°
2026-05-08 07:13 43.31977 12.44027 36974 ft 416 kts 215°
2026-05-08 07:14 43.27174 12.39650 36973 ft 416 kts 215°
2026-05-08 07:14 43.22372 12.35282 36970 ft 415 kts 215°
2026-05-08 07:15 43.17568 12.30919 36964 ft 416 kts 214°
2026-05-08 07:15 43.12711 12.26520 36958 ft 416 kts 214°
2026-05-08 07:16 43.07912 12.22180 36957 ft 416 kts 214°
2026-05-08 07:16 43.03062 12.17800 36952 ft 417 kts 214°
2026-05-08 07:17 42.98251 12.13466 36947 ft 417 kts 214°
2026-05-08 07:17 42.93398 12.09103 36934 ft 417 kts 214°
2026-05-08 07:18 42.88556 12.04756 36929 ft 417 kts 214°
2026-05-08 07:18 42.83715 12.00421 36933 ft 417 kts 214°
2026-05-08 07:19 42.78862 11.96082 36917 ft 417 kts 214°
2026-05-08 07:19 42.74037 11.91776 36922 ft 417 kts 214°
2026-05-08 07:20 42.69203 11.87470 36929 ft 417 kts 214°
2026-05-08 07:20 42.64345 11.83151 36924 ft 418 kts 214°
2026-05-08 07:21 42.59508 11.78859 36925 ft 418 kts 214°
2026-05-08 07:21 42.54623 11.74532 36915 ft 419 kts 214°
2026-05-08 07:22 42.49742 11.70218 36920 ft 420 kts 214°
2026-05-08 07:22 42.44895 11.65940 36925 ft 419 kts 214°
2026-05-08 07:23 42.40006 11.61636 36925 ft 420 kts 214°
2026-05-08 07:23 42.35104 11.57326 36924 ft 420 kts 214°
2026-05-08 07:24 42.30235 11.53054 36923 ft 420 kts 215°
2026-05-08 07:24 42.25335 11.48765 36924 ft 420 kts 215°
2026-05-08 07:25 42.20440 11.44484 36927 ft 421 kts 215°
2026-05-08 07:26 42.13096 11.38081 36908 ft 421 kts 215°
2026-05-08 07:26 42.08192 11.33814 36913 ft 420 kts 214°
2026-05-08 07:27 42.03273 11.29544 36898 ft 420 kts 214°
2026-05-08 07:27 41.98371 11.25293 36904 ft 421 kts 214°
2026-05-08 07:28 41.93456 11.21039 36902 ft 422 kts 215°
2026-05-08 07:28 41.88511 11.16769 36904 ft 422 kts 215°
2026-05-08 07:29 41.83727 11.12323 36906 ft 421 kts 219°
2026-05-08 07:29 41.79305 11.07252 36903 ft 419 kts 225°
2026-05-08 07:30 41.75324 11.01611 36895 ft 416 kts 231°
2026-05-08 07:30 41.71639 10.95686 36665 ft 416 kts 232°
2026-05-08 07:30 41.69810 10.92745 36218 ft 413 kts 232°
2026-05-08 07:31 41.67969 10.89784 35695 ft 413 kts 232°
2026-05-08 07:31 41.66150 10.86861 35108 ft 414 kts 232°
2026-05-08 07:31 41.64305 10.83902 34483 ft 416 kts 232°
2026-05-08 07:31 41.62448 10.80921 33727 ft 418 kts 231°
2026-05-08 07:32 41.60616 10.77983 32973 ft 420 kts 231°
2026-05-08 07:32 41.58720 10.74943 32189 ft 422 kts 231°
2026-05-08 07:32 41.56847 10.71950 31446 ft 424 kts 230°
2026-05-08 07:32 41.54976 10.68958 30678 ft 425 kts 230°
2026-05-08 07:33 41.53091 10.65947 29869 ft 427 kts 230°
2026-05-08 07:33 41.51188 10.62923 29137 ft 427 kts 230°
2026-05-08 07:33 41.49275 10.59886 28635 ft 430 kts 230°
2026-05-08 07:33 41.47345 10.56821 28111 ft 430 kts 230°
2026-05-08 07:34 41.45449 10.53811 27592 ft 427 kts 230°
2026-05-08 07:34 41.43542 10.50786 27058 ft 425 kts 230°
2026-05-08 07:34 41.41647 10.47783 26540 ft 422 kts 230°
2026-05-08 07:34 41.39786 10.44836 26028 ft 420 kts 230°
2026-05-08 07:35 41.37908 10.41868 25495 ft 416 kts 231°
2026-05-08 07:35 41.36058 10.38942 24974 ft 413 kts 231°
2026-05-08 07:35 41.34227 10.36047 24529 ft 411 kts 230°
2026-05-08 07:35 41.32390 10.33148 24088 ft 410 kts 230°
2026-05-08 07:36 41.30555 10.30256 23649 ft 408 kts 230°
2026-05-08 07:36 41.28737 10.27392 23214 ft 406 kts 230°
2026-05-08 07:36 41.26929 10.24546 22782 ft 403 kts 230°
2026-05-08 07:36 41.25108 10.21685 22354 ft 401 kts 230°
2026-05-08 07:37 41.23327 10.18892 21927 ft 400 kts 229°
2026-05-08 07:37 41.21414 10.16208 21499 ft 398 kts 224°
2026-05-08 07:37 41.19374 10.13797 21074 ft 396 kts 220°
2026-05-08 07:37 41.17196 10.11558 20649 ft 394 kts 218°
2026-05-08 07:38 41.15028 10.09384 20225 ft 392 kts 218°
2026-05-08 07:38 41.12849 10.07207 19798 ft 391 kts 218°
2026-05-08 07:38 41.10678 10.05041 19371 ft 388 kts 218°
2026-05-08 07:38 41.08546 10.02913 18948 ft 387 kts 218°
2026-05-08 07:39 41.06395 10.00764 18521 ft 386 kts 218°
2026-05-08 07:39 41.04247 9.98618 18091 ft 386 kts 218°
2026-05-08 07:39 41.02135 9.96507 17683 ft 383 kts 218°
2026-05-08 07:39 41.00023 9.94400 17276 ft 377 kts 218°
2026-05-08 07:40 40.97943 9.92328 16862 ft 371 kts 218°
2026-05-08 07:40 40.95971 9.90151 16440 ft 365 kts 225°
2026-05-08 07:40 40.94315 9.87721 16086 ft 357 kts 233°
2026-05-08 07:40 40.92880 9.85080 15841 ft 347 kts 236°
2026-05-08 07:41 40.91545 9.82490 15594 ft 338 kts 237°
2026-05-08 07:41 40.90244 9.79954 15349 ft 330 kts 237°
2026-05-08 07:41 40.88971 9.77484 15105 ft 322 kts 237°
2026-05-08 07:41 40.87717 9.75060 14859 ft 314 kts 236°
2026-05-08 07:42 40.86492 9.72701 14608 ft 312 kts 236°
2026-05-08 07:42 40.85259 9.70332 14372 ft 311 kts 236°
2026-05-08 07:42 40.84034 9.67985 14126 ft 310 kts 236°
2026-05-08 07:42 40.82814 9.65656 13879 ft 309 kts 237°
2026-05-08 07:43 40.81595 9.63327 13635 ft 308 kts 237°
2026-05-08 07:43 40.80389 9.61023 13392 ft 306 kts 237°
2026-05-08 07:43 40.79182 9.58714 13148 ft 306 kts 237°
2026-05-08 07:43 40.77978 9.56406 12905 ft 306 kts 236°
2026-05-08 07:44 40.76759 9.54077 12656 ft 306 kts 236°
2026-05-08 07:44 40.75556 9.51782 12412 ft 307 kts 236°
2026-05-08 07:44 40.74351 9.49486 12156 ft 306 kts 237°
2026-05-08 07:44 40.73144 9.47185 11915 ft 304 kts 236°
2026-05-08 07:45 40.71938 9.44891 11696 ft 303 kts 236°
2026-05-08 07:45 40.70753 9.42635 11477 ft 303 kts 236°
2026-05-08 07:45 40.69548 9.40347 11254 ft 302 kts 236°
2026-05-08 07:45 40.68351 9.38077 11030 ft 301 kts 236°
2026-05-08 07:46 40.67155 9.35812 10806 ft 300 kts 236°
2026-05-08 07:46 40.65976 9.33582 10587 ft 299 kts 235°
2026-05-08 07:46 40.64796 9.31347 10366 ft 297 kts 235°
2026-05-08 07:46 40.63617 9.29111 10146 ft 297 kts 235°
2026-05-08 07:47 40.62450 9.26896 9926 ft 295 kts 235°
2026-05-08 07:47 40.61285 9.24689 9703 ft 294 kts 235°
2026-05-08 07:47 40.60107 9.22466 9482 ft 294 kts 235°
2026-05-08 07:47 40.58939 9.20267 9260 ft 293 kts 235°
2026-05-08 07:48 40.57777 9.18084 9041 ft 292 kts 235°
2026-05-08 07:48 40.56728 9.15792 8800 ft 292 kts 250°
2026-05-08 07:48 40.56572 9.13219 8567 ft 288 kts 284°
2026-05-08 07:48 40.57499 9.10949 8340 ft 283 kts 317°
2026-05-08 07:49 40.59142 9.09575 8124 ft 279 kts 336°
2026-05-08 07:49 40.60880 9.08449 7894 ft 275 kts 334°
2026-05-08 07:49 40.62529 9.07227 7662 ft 268 kts 331°
2026-05-08 07:49 40.64163 9.06156 7415 ft 259 kts 349°
2026-05-08 07:50 40.65875 9.06307 7175 ft 246 kts 26°
2026-05-08 07:50 40.67110 9.07740 6955 ft 237 kts 57°
2026-05-08 07:50 40.67986 9.09542 6744 ft 231 kts 57°
2026-05-08 07:50 40.68857 9.11324 6544 ft 231 kts 57°
2026-05-08 07:51 40.69729 9.13078 6344 ft 228 kts 56°
2026-05-08 07:51 40.70597 9.14796 6156 ft 221 kts 56°
2026-05-08 07:51 40.71442 9.16450 5970 ft 214 kts 56°
2026-05-08 07:51 40.72264 9.18043 5799 ft 207 kts 55°
2026-05-08 07:52 40.73059 9.19576 5638 ft 198 kts 55°
2026-05-08 07:52 40.73819 9.21037 5561 ft 186 kts 55°
2026-05-08 07:52 40.74550 9.22440 5438 ft 185 kts 55°
2026-05-08 07:52 40.75278 9.23833 5289 ft 184 kts 55°
2026-05-08 07:53 40.76010 9.25234 5142 ft 185 kts 54°
2026-05-08 07:53 40.76739 9.26629 4990 ft 184 kts 54°
2026-05-08 07:53 40.77441 9.27974 4732 ft 174 kts 54°
2026-05-08 07:53 40.78106 9.29246 4452 ft 163 kts 54°
2026-05-08 07:54 40.78742 9.30463 4220 ft 162 kts 54°
2026-05-08 07:54 40.79379 9.31683 4014 ft 162 kts 54°
2026-05-08 07:54 40.80019 9.32910 3765 ft 162 kts 54°
2026-05-08 07:54 40.80660 9.34136 3512 ft 162 kts 54°
2026-05-08 07:55 40.81298 9.35362 3263 ft 163 kts 53°
2026-05-08 07:55 40.81938 9.36587 3008 ft 163 kts 53°
2026-05-08 07:55 40.82577 9.37813 2753 ft 162 kts 53°
2026-05-08 07:55 40.83210 9.39025 2492 ft 157 kts 53°
2026-05-08 07:56 40.83814 9.40184 2239 ft 147 kts 53°
2026-05-08 07:56 40.84375 9.41259 2009 ft 140 kts 53°
2026-05-08 07:56 40.84925 9.42311 1813 ft 139 kts 53°
2026-05-08 07:56 40.85470 9.43352 1607 ft 138 kts 53°
2026-05-08 07:57 40.86019 9.44402 1401 ft 138 kts 54°
2026-05-08 07:57 40.86563 9.45443 1186 ft 138 kts 54°
2026-05-08 07:57 40.87117 9.46502 968 ft 139 kts 54°
2026-05-08 07:57 40.87677 9.47573 747 ft 141 kts 54°
2026-05-08 07:58 40.88239 9.48648 524 ft 142 kts 55°
2026-05-08 07:58 40.88804 9.49725 301 ft 143 kts 55°
2026-05-08 07:58 40.89372 9.50810 88 ft 143 kts 55°
2026-05-08 07:58 40.89920 9.51871 47 ft 128 kts 54°
2026-05-08 07:59 40.90331 9.52648 47 ft 79 kts 55°
2026-05-08 07:59 40.90464 9.52896 47 ft 18 kts 40°
2026-05-08 07:59 40.90573 9.52877 47 ft 17 kts 291°
2026-05-08 07:59 40.90559 9.52719 47 ft 17 kts 255°
2026-05-08 08:00 40.90503 9.52583 47 ft 16 kts 233°
2026-05-08 08:00 40.90434 9.52460 47 ft 16 kts 233°
2026-05-08 08:00 40.90371 9.52335 47 ft 16 kts 236°
2026-05-08 08:00 40.90308 9.52210 47 ft 16 kts 236°
2026-05-08 08:01 40.90243 9.52089 47 ft 16 kts 234°
2026-05-08 08:01 40.90183 9.51972 47 ft 13 kts 245°
2026-05-08 08:01 40.90185 9.51853 47 ft 8 kts 282°
2026-05-08 08:01 40.90222 9.51801 47 ft 6 kts 307°
2026-05-08 08:02 40.90223 9.51749 47 ft 4 kts 287°
2026-05-08 08:02 40.90252 9.51717 47 ft 5 kts 325°
2026-05-08 08:02 40.90263 9.51706 47 ft 0 kts 326°